This demonstration page uses our WeatherBlox Daily Observations layout. Learn more.

Left ArrowRight Arrow

38.80484, -77.04692

Hourly Observations for December 18, 2021

Temp ( °F °C ) Dew Point ( °F °C ) Humidity (%) Winds ( mph kmh ) Pressure ( in mb ) Visibility ( mi km ) Precip ( " mm )
12:52 am 00:52 Cloudy 55 12.8 22 -5.6 28 28 NNE 3 6 30.18 1022 10 16 0.00 0.00
1:52 am 01:52 Cloudy with Light Rain 53 11.7 28 -2.2 38 38 NE 7 11 30.17 1022 10 16 0.00 0.00
2:52 am 02:52 Cloudy 53 11.7 25 -3.9 34 34 NNE 9 15 30.18 1022 10 16 0.00 0.00
3:52 am 03:52 Cloudy 51 10.6 28 -2.2 41 41 ENE 10 17 30.15 1021 10 16 0.00 0.00
4:52 am 04:52 Cloudy 51 10.6 29 -1.7 43 43 E 6 9 30.14 1021 10 16 0.00 0.00
5:52 am 05:52 Cloudy 51 10.6 28 -2.2 41 41 ENE 7 11 30.14 1021 10 16 0.00 0.00
6:52 am 06:52 Cloudy 51 10.6 29 -1.7 43 43 ENE 6 9 30.13 1020 10 16 0.00 0.00
7:14 am 07:14 Cloudy 51 10.6 29 -1.7 43 43 ENE 5 7 30.13 1020 10 16 0.00 0.00
7:37 am 07:37 Cloudy 51 10.6 31 -0.6 46 46 E 8 13 30.13 1020 10 16 0.00 0.00
7:52 am 07:52 Cloudy 50 10 33 0.6 52 52 E 9 15 30.12 1020 10 16 0.00 0.00
7:59 am 07:59 Cloudy 51 10.6 33 0.6 50 50 E 8 13 30.12 1020 10 16 0.00 0.00
8:52 am 08:52 Cloudy 51 10.6 35 1.7 54 54 NE 5 7 30.13 1020 10 16 0.00 0.00
9:52 am 09:52 Cloudy 51 10.6 35 1.7 54 54 E 5 7 30.11 1020 10 16 0.00 0.00
10:52 am 10:52 Cloudy 51 10.6 35 1.7 54 54 E 5 7 30.09 1019 10 16 0.00 0.00
11:52 am 11:52 Cloudy 52 11.1 35 1.7 53 53 Calm 30.05 1018 10 16 0.00 0.00
12:52 pm 12:52 Cloudy 53 11.7 35 1.7 51 51 Calm 30.01 1016 10 16 0.00 0.00
1:52 pm 13:52 Cloudy 52 11.1 37 2.8 57 57 Calm 29.98 1015 10 16 0.00 0.00
2:26 pm 14:26 Cloudy 52 11.1 38 3.3 59 59 SSW 6 9 29.96 1015 10 16 0.00 0.00
2:52 pm 14:52 Cloudy 53 11.7 38 3.3 57 57 S 5 7 29.95 1014 10 16 0.00 0.00
3:52 pm 15:52 Cloudy with Light Rain 51 10.6 41 5 69 69 SSW 3 6 29.93 1014 10 16 0.00 0.00
4:52 pm 16:52 Cloudy 51 10.6 43 6.1 74 74 S 6 9 29.91 1013 10 16 0.00 0.00
5:32 pm 17:32 Cloudy 52 11.1 43 6.1 72 72 S 5 7 29.91 1013 10 16 0.00 0.00
5:52 pm 17:52 Cloudy 52 11.1 43 6.1 72 72 S 8 13 29.89 1012 10 16 0.00 0.00
6:52 pm 18:52 Cloudy 53 11.7 43 6.1 69 69 S 5 7 29.88 1012 10 16 0.00 0.00
7:23 pm 19:23 Cloudy 53 11.7 44 6.7 72 72 SSW 5 7 29.88 1012 10 16 0.00 0.00
7:52 pm 19:52 Cloudy 53 11.7 45 7.2 74 74 S 3 6 29.86 1011 10 16 0.00 0.00
8:52 pm 20:52 Cloudy 54 12.2 49 9.4 83 83 VRB 3 6 29.84 1011 10 16 0.00 0.00
9:34 pm 21:34 Cloudy 55 12.8 50 10 83 83 SW 3 6 29.83 1010 10 16 0.00 0.00
9:52 pm 21:52 Cloudy 55 12.8 51 10.6 87 87 S 5 7 29.83 1010 10 16 0.00 0.00
10:46 pm 22:46 Cloudy with Mist and Fog 54 12 52 11 94 94 S 7 11 29.82 1010 6 10 0.00 0.00
10:52 pm 22:52 Cloudy with Mist and Fog 55 12.8 52 11.1 90 90 S 6 9 29.81 1009 6 10 0.00 0.00
11:18 pm 23:18 Mostly Cloudy with Mist and Fog 53 11.7 51 10.6 93 93 S 9 15 29.80 1009 6 10 0.00 0.00
11:26 pm 23:26 Partly Cloudy with Mist and Fog 54 12.2 51 10.6 90 90 S 9 15 29.80 1009 6 10 0.00 0.00
11:52 pm 23:52 Mostly Cloudy 55 12.8 52 11.1 90 90 Calm 29.79 1009 7 11 0.00 0.00

Powered by AerisWeather